Location: Unspecified
(49.8670°N, 0.0000°E)
Time: 05:11:15
(UTC+00:00)

Courier 1B Rocket - Pass Details

Date: 29 June 2019
Orbit: 920 x 1202 km, 28.3° (Epoch: 16 August)

Event Time Altitude Azimuth Distance (km) Brightness Sun altitude
Rises 04:10:24 0° 236° (SW) 3,951 7.4 1.2°
Reaches altitude 10° 04:16:08 10° 201° (SSW) 2,908 7.0 2.0°
Maximum altitude 04:17:35 11° 189° (S) 2,835 7.0 2.2°
Drops below altitude 10° 04:19:01 10° 177° (S) 2,863 7.2 2.4°
Sets 04:24:26 0° 142° (SE) 3,729 8.1 3.1°
